[[{"header":{"parameterUnit":"m.s-1","parameterCategory":1,"la1":30.2991,"la2":30.254,"lo1":-89.0895,"lo2":-89.0444,"dy":0.0017,"dx":0.0017,"nx":28,"ny":28,"refTime":"2025-12-24T09:00:00:Z","depth":0,"parameterNumber":2,"parameterNumberName":"U-component_of_WINDS"},"data":[0,0,0,0,0,0,0,0,0,0,0,0,0,0,0,0,0,0,0,0,0,0,0,0,0,0,0,0,0,0,0,0,0,0,0,0,0,0,0,0,0,0,0,0,0,0,0,0,0,0,0,0,0,0,0,0,0,0,-0.7017,-0.7017,0,-0.6995,-0.6994,-0.6994,-0.6939,-0.6938,-0.6937,-0.6936,-0.6915,-0.6915,-0.6916,0,0,0,0,0,0,0,0,0,0,0,0,0,-0.7014,-0.7014,-0.7017,-0.7017,-0.7016,-0.6995,-0.6994,-0.6994,-0.6939,-0.6938,-0.6936,-0.6935,-0.6914,-0.6915,-0.6916,0,0,0,0,0,0,0,0,0,0,0,0,0,-0.7006,-0.7014,-0.7017,-0.6986,-0.6983,-0.6995,-0.6994,-0.6994,-0.694,-0.6938,-0.6936,-0.6934,-0.6914,-0.6915,-0.6916,-0.6956,0,0,-0.6918,-0.6919,0,0,0,0,0,0,0,0,-0.7006,-0.7006,-0.6991,-0.6988,-0.6985,-0.6968,-0.6985,-0.6981,-0.694,-0.6956,-0.6936,-0.6934,-0.6934,-0.6933,-0.6933,-0.6955,-0.6954,-0.6918,-0.6919,-0.6919,-0.6919,0,0,0,0,0,0,0,-0.7007,-0.7006,-0.7008,-0.6991,-0.6987,-0.6974,-0.6971,-0.6984,-0.6955,-0.6955,-0.6951,-0.6949,-0.6932,-0.6932,-0.6932,-0.6954,-0.6918,-0.6919,-0.6919,-0.692,-0.7008,-0.7009,0,0,0,0,0,0,-0.7011,-0.7007,-0.7009,-0.7007,-0.6991,-0.6976,-0.6972,-0.6975,-0.6955,-0.695,-0.695,-0.6946,-0.6932,-0.6931,-0.6931,-0.6976,-0.6919,-0.692,-0.692,-0.7006,-0.7008,-0.701,0,0,0,0,0,0,-0.7012,-0.7012,-0.701,-0.7006,-0.7005,-0.6978,-0.6981,-0.6976,-0.6976,-0.6951,-0.6946,-0.6956,-0.693,-0.693,-0.695,-0.6975,-0.692,-0.6921,-0.7003,-0.7006,-0.7009,-0.7068,0,0,0,0,0,0,-0.7012,-0.7013,-0.7027,-0.7007,-0.7005,-0.7029,-0.6983,-0.6977,-0.6977,-0.6972,-0.6955,-0.6951,-0.6929,-0.6949,-0.6951,-0.6975,-0.6922,-0.7001,-0.7005,-0.7008,-0.7064,-0.7073,-0.708,0,0,0,0,0,-0.7012,-0.7045,-0.7028,-0.7029,-0.7023,-0.703,-0.703,-0.7003,-0.6979,-0.6994,-0.6978,-0.6951,-0.6972,-0.6952,-0.6953,-0.6978,-0.6999,-0.7004,-0.7008,-0.706,-0.7071,-0.708,0,0,0,0,0,0,-0.7069,-0.7042,-0.7023,-0.705,-0.7043,-0.7021,-0.7039,-0.7015,-0.7015,-0.701,-0.6978,-0.6975,-0.6999,-0.699,-0.6968,-0.7016,-0.6981,-0.6986,-0.7021,-0.7031,-0.7039,-0.704,-0.6922,0,0,0,0,0,-0.7085,-0.7093,-0.7069,-0.7095,-0.7093,-0.7067,-0.7069,-0.7049,-0.704,-0.7037,-0.7023,-0.7017,-0.7021,-0.7025,-0.7028,-0.7062,-0.7058,-0.708,-0.7088,-0.7095,-0.71,-0.7117,-0.7127,-0.7024,-0.7024,-0.7024,0,0,-0.7118,-0.7104,-0.7111,-0.7107,-0.7099,-0.7108,-0.7064,-0.7076,-0.7083,-0.7039,-0.7057,-0.7047,-0.7037,-0.7064,-0.7076,-0.7058,-0.7127,-0.71,-0.7106,-0.7107,-0.7122,-0.7132,-0.7141,-0.7026,-0.7026,-0.7026,0,0,-0.7183,-0.7173,-0.7194,-0.7187,-0.7175,-0.7157,-0.7163,-0.7144,-0.7135,-0.7153,-0.712,-0.7128,-0.7137,-0.7132,-0.713,-0.7193,-0.7168,-0.7195,-0.7238,-0.7255,-0.7263,-0.727,-0.7293,-0.7302,-0.72,-0.72,-0.72,0,-0.7226,-0.7238,-0.7208,-0.7222,-0.7221,-0.7181,-0.7203,-0.7197,-0.7188,-0.7189,-0.7168,-0.7179,-0.717,-0.7195,-0.7211,-0.721,-0.7216,-0.7197,-0.7265,-0.7271,-0.7277,-0.7299,-0.7308,-0.7203,-0.7203,-0.7202,-0.7202,0,-0.7291,-0.73,-0.7319,-0.731,-0.7311,-0.7329,-0.7302,-0.7307,-0.7287,-0.7272,-0.7291,-0.7278,-0.7278,-0.7282,-0.7263,-0.7306,-0.7295,-0.727,-0.7235,-0.7291,-0.7311,-0.7319,-0.7208,-0.7207,-0.7206,-0.7205,0,0,-0.7392,-0.7366,-0.7374,-0.7369,-0.7353,-0.736,-0.7376,-0.7376,-0.7381,-0.7375,-0.7389,-0.7397,-0.7374,-0.7372,-0.7352,-0.7367,-0.7419,-0.7341,-0.734,-0.7356,-0.7465,-0.7484,-0.7494,-0.7402,-0.7403,-0.7404,-0.7466,0,-0.7454,-0.7479,-0.7453,-0.7484,-0.7492,-0.7454,-0.7468,-0.7461,-0.7447,-0.7452,-0.7437,-0.7444,-0.7413,-0.7411,-0.7425,-0.741,-0.744,-0.7405,-0.7415,-0.7415,-0.7419,-0.7504,-0.7524,-0.7583,-0.7473,-0.7475,-0.7476,0,-0.7529,-0.7527,-0.7559,-0.7541,-0.7543,-0.7556,-0.7554,-0.7559,-0.755,-0.7538,-0.7537,-0.7512,-0.7527,-0.7492,-0.7513,-0.749,-0.7492,-0.7485,-0.7487,-0.7487,-0.7449,-0.7508,-0.7601,-0.761,-0.7487,-0.7486,-0.7486,0,-0.76,-0.7605,-0.7625,-0.7622,-0.7601,-0.7612,-0.7604,-0.7592,-0.7594,-0.7592,-0.7592,-0.7592,-0.7592,-0.7593,-0.757,-0.7546,-0.7594,-0.7557,-0.7585,-0.7586,-0.7598,-0.7597,-0.7693,-0.7598,-0.7598,-0.7598,-0.7598,0,-0.7672,-0.7693,-0.7656,-0.7669,-0.7691,-0.7661,-0.7684,-0.7673,-0.7663,-0.7673,-0.764,-0.765,-0.7617,-0.7624,-0.7606,-0.7626,-0.7626,-0.7618,-0.7613,-0.7622,-0.7623,-0.7623,-0.7619,-0.76,-0.76,-0.7599,-0.7599,0,-0.7756,-0.7732,-0.7751,-0.773,-0.7725,-0.7743,-0.7725,-0.7736,-0.7719,-0.7732,-0.7733,-0.7708,-0.7714,-0.769,-0.7693,-0.768,-0.7711,-0.7699,-0.7714,-0.7711,-0.7741,-0.7738,-0.7841,-0.7853,-0.775,-0.7751,-0.7752,0,-0.7804,-0.7819,-0.7799,-0.7803,-0.7796,-0.7803,-0.7804,-0.7775,-0.7777,-0.7768,-0.778,-0.7783,-0.7784,-0.7796,-0.7779,-0.778,-0.7768,-0.7804,-0.7769,-0.7777,-0.777,-0.7769,-0.7771,-0.7812,-0.7813,-0.7814,-0.7815,0,-0.7891,-0.7878,-0.7881,-0.7879,-0.7881,-0.7879,-0.7874,-0.7879,-0.7848,-0.7852,-0.7858,-0.7859,-0.7861,-0.7865,-0.7863,-0.7855,-0.7831,-0.7826,-0.7833,-0.7842,-0.7851,-0.7847,-0.7735,-0.7824,-0.7823,-0.7823,-0.7822,-0.7822,-0.7958,-0.797,-0.7958,-0.7962,-0.7955,-0.7952,-0.7961,-0.7946,-0.7949,-0.7949,-0.7931,-0.794,-0.7931,-0.7925,-0.792,-0.7927,-0.7911,-0.792,-0.7923,-0.7926,-0.7931,-0.7849,-0.7927,-0.7926,-0.7926,-0.7926,-0.7926,0,-0.8045,-0.8035,-0.8039,-0.8033,-0.8036,-0.8011,-0.8005,-0.801,-0.8018,-0.801,-0.8012,-0.8019,-0.8023,-0.8005,-0.8007,-0.8016,-0.8004,-0.8017,-0.8017,-0.8015,-0.7946,-0.794,-0.8026,-0.8026,-0.8026,-0.8026,-0.8026,-0.8026,-0.809,-0.8109,-0.8095,-0.811,-0.81,-0.8108,-0.8107,-0.8104,-0.8098,-0.8107,-0.8109,-0.8097,-0.8086,-0.8087,-0.8089,-0.8084,-0.8086,-0.8103,-0.8094,-0.803,-0.802,-0.8011,-0.8005,-0.8104,-0.8104,-0.8163,-0.8164,-0.8164]},{"header":{"parameterUnit":"m.s-1","parameterCategory":1,"la1":30.2991,"la2":30.254,"lo1":-89.0895,"lo2":-89.0444,"dy":0.0017,"dx":0.0017,"nx":28,"ny":28,"refTime":"2025-12-24T09:00:00:Z","depth":0,"parameterNumber":3,"parameterNumberName":"V-component_of_WINDS"},"data":[0,0,0,0,0,0,0,0,0,0,0,0,0,0,0,0,0,0,0,0,0,0,0,0,0,0,0,0,0,0,0,0,0,0,0,0,0,0,0,0,0,0,0,0,0,0,0,0,0,0,0,0,0,0,0,0,0,0,-1.0138,-1.0138,0,-1.0159,-1.016,-1.016,-1.015,-1.015,-1.0149,-1.0149,-1.017,-1.0171,-1.0172,0,0,0,0,0,0,0,0,0,0,0,0,0,-1.0087,-1.0088,-1.0138,-1.0138,-1.0138,-1.0159,-1.016,-1.016,-1.015,-1.015,-1.0149,-1.0148,-1.017,-1.0171,-1.0172,0,0,0,0,0,0,0,0,0,0,0,0,0,-1.0109,-1.0088,-1.0138,-1.0136,-1.0136,-1.0159,-1.016,-1.016,-1.015,-1.015,-1.0149,-1.0148,-1.0169,-1.0171,-1.0172,-1.0198,0,0,-1.0177,-1.0178,0,0,0,0,0,0,0,0,-1.0107,-1.011,-1.0136,-1.0136,-1.0136,-1.0151,-1.0149,-1.0173,-1.0151,-1.0145,-1.0149,-1.0148,-1.0164,-1.0166,-1.0172,-1.0199,-1.02,-1.0177,-1.0178,-1.0179,-1.0179,0,0,0,0,0,0,0,-1.0106,-1.0109,-1.0146,-1.0136,-1.0137,-1.0134,-1.0136,-1.0154,-1.0159,-1.0145,-1.0145,-1.0148,-1.0164,-1.0171,-1.0172,-1.02,-1.0177,-1.0179,-1.018,-1.018,-1.0248,-1.0249,0,0,0,0,0,0,-1.0104,-1.0108,-1.0146,-1.0147,-1.012,-1.0135,-1.0138,-1.0147,-1.0159,-1.016,-1.0148,-1.0147,-1.0168,-1.0171,-1.0173,-1.0203,-1.0179,-1.018,-1.0181,-1.0247,-1.0248,-1.0249,0,0,0,0,0,0,-1.0103,-1.0108,-1.0145,-1.0127,-1.0132,-1.0137,-1.0148,-1.0148,-1.0154,-1.0161,-1.0161,-1.0154,-1.0168,-1.0171,-1.0192,-1.0204,-1.0181,-1.0183,-1.0246,-1.0248,-1.0249,-1.0264,0,0,0,0,0,0,-1.0102,-1.0108,-1.0118,-1.0128,-1.0133,-1.0163,-1.0149,-1.0149,-1.0157,-1.0156,-1.0166,-1.0167,-1.0167,-1.0189,-1.0193,-1.0206,-1.0184,-1.0245,-1.0247,-1.0248,-1.0263,-1.0266,-1.0269,0,0,0,0,0,-1.01,-1.0122,-1.0118,-1.0123,-1.0146,-1.0164,-1.0167,-1.0167,-1.0158,-1.0168,-1.0172,-1.0167,-1.0202,-1.0192,-1.0196,-1.0209,-1.0244,-1.0246,-1.0248,-1.0262,-1.0265,-1.0269,0,0,0,0,0,0,-1.0113,-1.0123,-1.012,-1.0145,-1.0154,-1.0163,-1.0175,-1.0172,-1.0183,-1.0181,-1.018,-1.0183,-1.0204,-1.0209,-1.0197,-1.0234,-1.0222,-1.0225,-1.023,-1.0234,-1.0237,-1.0236,-1.0185,0,0,0,0,0,-1.0119,-1.0133,-1.0141,-1.0162,-1.0167,-1.017,-1.0178,-1.0178,-1.0187,-1.019,-1.0196,-1.0205,-1.0217,-1.0226,-1.0238,-1.0263,-1.0265,-1.0274,-1.0277,-1.028,-1.0282,-1.0295,-1.0299,-1.0255,-1.0255,-1.0255,0,0,-1.0131,-1.0138,-1.0147,-1.0165,-1.0172,-1.0186,-1.0174,-1.019,-1.02,-1.0193,-1.0213,-1.0217,-1.0226,-1.0249,-1.0259,-1.0253,-1.0295,-1.0282,-1.0284,-1.0285,-1.0297,-1.0301,-1.0305,-1.0257,-1.0257,-1.0256,0,0,-1.016,-1.0167,-1.0186,-1.0193,-1.0203,-1.0205,-1.0209,-1.0219,-1.0221,-1.0241,-1.0235,-1.0247,-1.027,-1.0277,-1.0283,-1.0314,-1.0309,-1.0318,-1.0334,-1.0346,-1.0349,-1.0352,-1.0363,-1.0367,-1.032,-1.032,-1.032,0,-1.0174,-1.0196,-1.0196,-1.0212,-1.0219,-1.0213,-1.0231,-1.0238,-1.0252,-1.0257,-1.025,-1.0277,-1.0283,-1.0307,-1.0315,-1.032,-1.0325,-1.0317,-1.0349,-1.0352,-1.0355,-1.0365,-1.0369,-1.0321,-1.0321,-1.0321,-1.0321,0,-1.0212,-1.0227,-1.0241,-1.0254,-1.0263,-1.028,-1.0282,-1.0291,-1.0289,-1.0291,-1.0311,-1.0318,-1.0331,-1.0336,-1.0335,-1.036,-1.0356,-1.0349,-1.0337,-1.036,-1.0369,-1.0373,-1.0323,-1.0322,-1.0322,-1.0322,0,0,-1.0251,-1.0263,-1.0268,-1.0274,-1.0284,-1.0296,-1.0312,-1.0325,-1.0332,-1.0342,-1.0355,-1.0373,-1.0367,-1.0374,-1.0373,-1.0384,-1.0407,-1.0376,-1.0376,-1.0381,-1.0434,-1.0439,-1.0444,-1.0404,-1.0404,-1.0405,-1.0433,0,-1.0281,-1.031,-1.0309,-1.0336,-1.035,-1.0343,-1.0357,-1.0365,-1.0367,-1.0378,-1.0381,-1.0394,-1.0384,-1.0389,-1.0399,-1.0402,-1.0417,-1.04,-1.0415,-1.0416,-1.0413,-1.0448,-1.0454,-1.0481,-1.0437,-1.0437,-1.0438,0,-1.032,-1.0331,-1.0359,-1.0366,-1.0372,-1.0384,-1.0396,-1.0407,-1.0415,-1.0415,-1.0423,-1.042,-1.0436,-1.0423,-1.0444,-1.0432,-1.0438,-1.044,-1.0441,-1.0443,-1.0428,-1.0451,-1.0489,-1.0493,-1.0444,-1.0443,-1.0443,0,-1.0345,-1.0366,-1.0386,-1.0391,-1.04,-1.0409,-1.0413,-1.042,-1.0428,-1.0437,-1.0442,-1.0453,-1.0459,-1.0468,-1.0467,-1.0458,-1.0489,-1.0476,-1.0489,-1.0489,-1.0496,-1.0496,-1.0536,-1.05,-1.05,-1.05,-1.05,0,-1.0379,-1.0396,-1.0397,-1.0409,-1.0427,-1.0426,-1.0445,-1.0448,-1.0454,-1.0466,-1.0461,-1.0472,-1.0471,-1.0482,-1.0482,-1.0499,-1.0502,-1.0502,-1.0502,-1.0503,-1.0503,-1.0507,-1.0505,-1.0501,-1.0501,-1.0501,-1.0501,0,-1.0411,-1.0412,-1.0432,-1.0439,-1.0441,-1.0455,-1.046,-1.0471,-1.0472,-1.0487,-1.0491,-1.0493,-1.0506,-1.0506,-1.052,-1.052,-1.0541,-1.0539,-1.0538,-1.0538,-1.0551,-1.055,-1.0596,-1.0601,-1.0562,-1.0562,-1.0563,0,-1.0432,-1.0445,-1.0453,-1.0461,-1.0465,-1.0478,-1.0485,-1.0484,-1.0492,-1.0501,-1.051,-1.0522,-1.0532,-1.0552,-1.0555,-1.0566,-1.0563,-1.0579,-1.0565,-1.0565,-1.0563,-1.0563,-1.0564,-1.0581,-1.0582,-1.0582,-1.0582,0,-1.047,-1.0469,-1.048,-1.0491,-1.05,-1.0509,-1.0517,-1.0523,-1.0522,-1.0531,-1.0544,-1.0552,-1.0566,-1.0578,-1.0588,-1.0592,-1.0587,-1.0587,-1.059,-1.0591,-1.059,-1.0591,-1.0546,-1.0586,-1.0585,-1.0585,-1.0585,-1.0585,-1.0497,-1.0508,-1.0515,-1.0527,-1.0532,-1.054,-1.055,-1.0552,-1.0563,-1.0575,-1.0573,-1.0587,-1.0594,-1.0607,-1.0611,-1.0622,-1.0616,-1.0622,-1.0623,-1.0625,-1.0626,-1.0589,-1.0624,-1.0624,-1.0623,-1.0623,-1.0623,0,-1.0534,-1.0538,-1.0549,-1.056,-1.0569,-1.0563,-1.0572,-1.058,-1.0592,-1.0599,-1.0608,-1.0622,-1.0633,-1.0636,-1.0647,-1.0655,-1.0653,-1.0657,-1.0657,-1.0658,-1.063,-1.0626,-1.0659,-1.0659,-1.0659,-1.0659,-1.0659,-1.0659,-1.0554,-1.0572,-1.0572,-1.0593,-1.0596,-1.061,-1.0615,-1.0621,-1.0627,-1.0643,-1.0652,-1.0654,-1.0659,-1.0669,-1.0679,-1.068,-1.0684,-1.0689,-1.0689,-1.0663,-1.066,-1.0656,-1.0652,-1.069,-1.069,-1.0715,-1.0716,-1.0716]}]]